Troy, AL

6:51 AM CDT on June 25, 2017 (GMT -0500)
Troy Municipal

Weather History for KTOI - August, 2013

Change the Weather History Date:

Wednesday, August 7, 2013

  Actual Average Record
Temperature  
Mean Temperature 82 °F 81 °F  
Max Temperature 92 °F 91 °F 100 °F (2007)
Min Temperature 72 °F 70 °F 61 °F (2004)
Cooling Degree Days 17 16  
Month to date cooling degree days 123 112  
Year to date cooling degree days 1308 1272  
Since 1 June cooling degree days 1016 985  
Growing Degree Days 31 (Base 50)    
Moisture  
Dew Point 72 °F    
Average Humidity 75    
Maximum Humidity 93    
Minimum Humidity 56    
Precipitation  
Precipitation T in 0.19 in 1.09 in (2003)
Month to date precipitation 1.13 1.24  
Year to date precipitation 43.61 34.57  
Sea Level Pressure  
Sea Level Pressure 29.98 in    
Wind  
Wind Speed 3 mph (ENE)    
Max Wind Speed 14 mph    
Max Gust Speed 16 mph    
Visibility 5 miles    
Events Rain , Thunderstorm    
T = Trace of Precipitation, MM = Missing Value Source: NWS Daily Summary

Daily Weather History Graph

Daily Weather History Graph

Search for Another Location

Airport or City:

Trip Planner

Search our weather history database for the weather conditions in past years. The results will help you decide how hot, cold, wet, or windy it might be!

Date:

Astronomy

Aug. 07, 2013 Rise Set
Actual Time 6:03 AM CDT 7:35 PM CDT
Civil Twilight 5:37 AM CDT 8:01 PM CDT
Nautical Twilight 5:06 AM CDT 8:32 PM CDT
Astronomical Twilight 4:33 AM CDT 9:05 PM CDT
Moon 6:45 AM CDT (8/7) 7:50 PM CDT (8/7)
Length of Visible Light 14h 23m
Length of Day
13h 31m
New Moon, 1% of the Moon is Illuminated
Aug 7
New Moon
Aug 14
First Quarter
Aug 20
Full
Aug 28
Last Quarter
Sep 5
New

Hourly Weather History & Observations

Time (CDT) Temp. Heat Index Dew Point Humidity Pressure Visibility Wind Dir Wind Speed Gust Speed Precip Events Conditions
12:53 AM 73.0 °F - 71.1 °F 93% 29.94 in 3.0 mi ESE 3.5 mph - N/A   Clear
1:53 AM 73.0 °F - 70.0 °F 90% 29.96 in 6.0 mi North 3.5 mph - N/A   Clear
2:53 AM 73.0 °F - 70.0 °F 90% 29.96 in 6.0 mi Calm Calm - N/A   Clear
3:53 AM 73.0 °F - 69.1 °F 87% 29.96 in 6.0 mi East 3.5 mph - N/A   Clear
4:11 AM 71.6 °F - 69.8 °F 94% 29.98 in 5.0 mi Calm Calm - N/A   Partly Cloudy
4:35 AM 71.6 °F - 69.8 °F 94% 29.98 in 2.5 mi NE 3.5 mph - N/A   Mostly Cloudy
4:39 AM 71.6 °F - 69.8 °F 94% 29.98 in 1.5 mi NE 3.5 mph - N/A   Mostly Cloudy
4:53 AM 72.0 °F - 70.0 °F 93% 29.96 in 1.5 mi NE 3.5 mph - N/A   Overcast
4:59 AM 71.6 °F - 69.8 °F 94% 29.97 in 2.0 mi Calm Calm - N/A   Overcast
5:05 AM 71.6 °F - 69.8 °F 94% 29.97 in 1.5 mi Calm Calm - N/A   Overcast
5:10 AM 71.6 °F - 69.8 °F 94% 29.98 in 2.0 mi Calm Calm - N/A   Overcast
5:20 AM 71.6 °F - 69.8 °F 94% 29.98 in 4.0 mi Calm Calm - N/A   Overcast
5:38 AM 71.6 °F - 69.8 °F 94% 29.98 in 4.0 mi Calm Calm - N/A   Scattered Clouds
5:53 AM 72.0 °F - 69.1 °F 91% 29.97 in 2.5 mi Calm Calm - N/A   Partly Cloudy
5:57 AM 71.6 °F - 69.8 °F 94% 29.99 in 1.5 mi Calm Calm - N/A   Scattered Clouds
6:06 AM 71.6 °F - 69.8 °F 94% 29.99 in 2.0 mi Calm Calm - N/A   Partly Cloudy
6:43 AM 73.4 °F - 69.8 °F 88% 30.00 in 4.0 mi Calm Calm - N/A   Clear
6:53 AM 73.0 °F - 70.0 °F 90% 29.99 in 4.0 mi NW 3.5 mph - N/A   Clear
7:53 AM 75.9 °F - 71.1 °F 85% 30.01 in 6.0 mi Calm Calm - N/A   Haze
8:53 AM 78.1 °F - 73.0 °F 84% 30.02 in 7.0 mi Calm Calm - N/A   Mostly Cloudy
9:08 AM 78.8 °F - 73.4 °F 83% 30.03 in 5.0 mi East 3.5 mph - N/A   Overcast
9:53 AM 80.1 °F 84.5 °F 73.9 °F 81% 30.03 in 4.0 mi ENE 4.6 mph - N/A   Haze
10:20 AM 82.4 °F 89.5 °F 75.2 °F 79% 30.04 in 4.0 mi North 3.5 mph - N/A   Haze
10:42 AM 82.4 °F 89.5 °F 75.2 °F 79% 30.04 in 5.0 mi North 3.5 mph - N/A   Haze
10:53 AM 84.0 °F 91.9 °F 75.0 °F 74% 30.02 in 5.0 mi Calm Calm - N/A   Haze
11:53 AM 84.9 °F 94.1 °F 75.9 °F 74% 30.00 in 6.0 mi SE 3.5 mph - N/A   Haze
12:53 PM 88.0 °F 97.5 °F 75.0 °F 65% 29.99 in 7.0 mi ESE 5.8 mph - N/A   Mostly Cloudy
1:01 PM 89.6 °F 99.8 °F 75.2 °F 62% 30.01 in 8.0 mi ESE 4.6 mph - N/A   Scattered Clouds
1:53 PM 91.0 °F 100.4 °F 73.9 °F 57% 29.97 in 9.0 mi SE 8.1 mph - N/A   Clear
2:53 PM 91.9 °F 100.7 °F 73.0 °F 54% 29.95 in 10.0 mi Variable 4.6 mph - N/A   Mostly Cloudy
3:53 PM 91.0 °F 99.3 °F 73.0 °F 55% 29.94 in 9.0 mi SE 5.8 mph - N/A   Partly Cloudy
4:53 PM 91.0 °F 99.3 °F 73.0 °F 55% 29.94 in 10.0 mi SE 5.8 mph - N/A   Partly Cloudy
5:53 PM 89.1 °F 97.0 °F 73.0 °F 59% 29.93 in 9.0 mi SSE 3.5 mph - N/A   Clear
6:53 PM 88.0 °F 97.5 °F 75.0 °F 65% 29.93 in 8.0 mi Calm Calm - N/A   Clear
7:53 PM 82.0 °F 90.2 °F 77.0 °F 85% 29.95 in 6.0 mi Calm Calm - N/A   Haze
8:53 PM 81.0 °F 87.9 °F 77.0 °F 88% 29.99 in 6.0 mi Calm Calm - N/A   Mostly Cloudy
9:53 PM 80.1 °F 85.8 °F 77.0 °F 90% 30.00 in 4.0 mi Calm Calm - N/A   Mostly Cloudy
10:32 PM 80.6 °F 86.2 °F 75.2 °F 84% 30.01 in 7.0 mi Calm Calm - N/A Thunderstorm Overcast
10:53 PM 81.0 °F 87.3 °F 75.9 °F 85% 30.02 in 7.0 mi NNW 11.5 mph - N/A Thunderstorm Thunderstorm
11:36 PM 78.8 °F - 73.4 °F 83% 30.00 in 9.0 mi East 3.5 mph - 0.00 in Rain Light Rain
11:53 PM 78.1 °F - 73.9 °F 87% 29.97 in 7.0 mi Calm Calm - 0.00 in   Partly Cloudy